SL-3 R/B (12465 NORAD) Tracking and Keplerian Element Data

This shows tracking and keplerian element data for the satellite.

Feedback or suggestion? Click here.




ElementValue
Catalog12465
NameSL-3 R/B
Epoch Orbit42618
Epoch Day354.16813781
Epoch Year2025
RAAN25.051
Inclination81.2321
Eccentricity0.001836
Argument of Perigee297.4613
Mean Anonmoly62.4762
Mean Motion15.39748573
Decay Rate7.681E-05
L11 12465U 81046B 25354.16813781 .00007681 00000+0 19228-3 0 9997
L22 12465 81.2321 25.0510 0018360 297.4613 62.4762 15.39748573426180



Live tracking and technical data element details for SL-3 R/B (NORAD 12465). SL-3 R/B can be tracked NOW for your location showing map with azimuth and elevation plus other details from your city location.







IsCatalogInMostPopularTable: catalog: 12465, numindb: 420
Update: records affected: 1



GetName: 12465 SL-3 R/B

Hit Count: updated at: Sun, 08 Feb 2026 17:27:04 GMT